Tillbaka till svenska Fidonet
English   Information   Debug  
FILM   0/18
FNEWS_PUBLISH   5034
FN_SYSOP   42247
FN_SYSOP_OLD1   71952
FTP_FIDO   0/2
FTSC_PUBLIC   0/13979
FUNNY   0/4886
GENEALOGY.EUR   0/71
GET_INFO   105
GOLDED   0/408
HAM   4529/16786
HOLYSMOKE   0/6791
HOT_SITES   0/1
HTMLEDIT   0/71
HUB203   466
HUB_100   264
HUB_400   39
HUMOR   0/29
IC   0/2851
INTERNET   0/424
INTERUSER   0/3
IP_CONNECT   719
JAMNNTPD   0/233
JAMTLAND   0/47
KATTY_KORNER   0/41
LAN   0/16
LINUX-USER   0/19
LINUXHELP   0/1155
LINUX   0/22430
LINUX_BBS   0/957
mail   18.68
mail_fore_ok   249
MENSA   0/341
MODERATOR   0/102
MONTE   0/992
MOSCOW_OKLAHOMA   0/1245
MUFFIN   0/783
MUSIC   0/321
N203_STAT   938
N203_SYSCHAT   313
NET203   321
NET204   69
NET_DEV   0/10
NORD.ADMIN   0/101
NORD.CHAT   0/2572
NORD.FIDONET   189
NORD.HARDWARE   0/28
NORD.KULTUR   0/114
NORD.PROG   0/32
NORD.SOFTWARE   0/88
NORD.TEKNIK   0/58
NORD   0/453
OCCULT_CHAT   0/93
OS2BBS   0/787
OS2DOSBBS   0/580
OS2HW   0/42
OS2INET   0/37
OS2LAN   0/134
OS2PROG   0/36
OS2REXX   0/113
OS2USER-L   207
OS2   0/4835
OSDEBATE   0/18996
PASCAL   0/490
PERL   0/457
PHP   0/45
POINTS   0/405
POLITICS   0/29554
POL_INC   0/14731
PSION   103
R20_ADMIN   1133
R20_AMATORRADIO   0/2
R20_BEST_OF_FIDONET   16
R20_CHAT   0/897
R20_DEPP   0/3
R20_DEV   400
R20_ECHO2   1934
R20_ECHOPRES   0/35
R20_ESTAT   0/719
R20_FIDONETPROG...
...RAM.MYPOINT
  0/2
R20_FIDONETPROGRAM   0/22
R20_FIDONET   0/248
R20_FILEFIND   0/24
R20_FILEFOUND   0/22
R20_HIFI   0/3
R20_INFO2   3828
R20_INTERNET   0/12940
R20_INTRESSE   0/60
R20_INTR_KOM   0/99
R20_KANDIDAT.CHAT   42
R20_KANDIDAT   28
R20_KOM_DEV   112
R20_KONTROLL   0/13360
R20_KORSET   0/18
R20_LOKALTRAFIK   0/24
R20_MODERATOR   0/1852
R20_NC   76
R20_NET200   245
R20_NETWORK.OTH...
...ERNETS
  0/13
R20_OPERATIVSYS...
...TEM.LINUX
  0/44
R20_PROGRAMVAROR   0/1
R20_REC2NEC   534
R20_SFOSM   0/341
R20_SF   0/108
R20_SPRAK.ENGLISH   0/1
R20_SQUISH   107
R20_TEST   2
R20_WORST_OF_FIDONET   20
RAR   0/9
RA_MULTI   106
RA_UTIL   0/162
REGCON.EUR   0/2072
REGCON   0/13
SCIENCE   0/1206
SF   0/239
SHAREWARE_SUPPORT   0/5146
SHAREWRE   0/14
SIMPSONS   0/169
STATS_OLD1   0/2539.065
STATS_OLD2   0/2530
STATS_OLD3   0/2395.095
STATS_OLD4   0/1692.25
SURVIVOR   0/495
SYSOPS_CORNER   0/3
SYSOP   0/84
TAGLINES   0/112
TEAMOS2   0/4530
TECH   0/2617
TEST.444   0/105
TRAPDOOR   0/19
TREK   0/755
TUB   0/290
UFO   0/40
UNIX   0/1316
USA_EURLINK   0/102
USR_MODEMS   0/1
VATICAN   0/2740
VIETNAM_VETS   0/14
VIRUS   0/378
VIRUS_INFO   0/201
VISUAL_BASIC   0/473
WHITEHOUSE   0/5187
WIN2000   0/101
WIN32   0/30
WIN95   0/4291
WIN95_OLD1   0/70272
WINDOWS   0/1517
WWB_SYSOP   0/419
WWB_TECH   0/810
ZCC-PUBLIC   0/1
ZEC   4

 
4DOS   0/134
ABORTION   0/7
ALASKA_CHAT   0/506
ALLFIX_FILE   0/1313
ALLFIX_FILE_OLD1   0/7997
ALT_DOS   0/152
AMATEUR_RADIO   0/1039
AMIGASALE   0/14
AMIGA   0/331
AMIGA_INT   0/1
AMIGA_PROG   0/20
AMIGA_SYSOP   0/26
ANIME   0/15
ARGUS   0/924
ASCII_ART   0/340
ASIAN_LINK   0/651
ASTRONOMY   0/417
AUDIO   0/92
AUTOMOBILE_RACING   0/105
BABYLON5   0/17862
BAG   135
BATPOWER   0/361
BBBS.ENGLISH   0/382
BBSLAW   0/109
BBS_ADS   0/5290
BBS_INTERNET   0/507
BIBLE   0/3563
BINKD   0/1119
BINKLEY   0/215
BLUEWAVE   0/2173
CABLE_MODEMS   0/25
CBM   0/46
CDRECORD   0/66
CDROM   0/20
CLASSIC_COMPUTER   0/378
COMICS   0/15
CONSPRCY   0/899
COOKING   42383
COOKING_OLD1   0/24719
COOKING_OLD2   0/40862
COOKING_OLD3   0/37489
COOKING_OLD4   0/35496
COOKING_OLD5   9370
C_ECHO   0/189
C_PLUSPLUS   0/31
DIRTY_DOZEN   0/201
DOORGAMES   0/2388
DOS_INTERNET   0/196
duplikat   6103
ECHOLIST   15246/18295
EC_SUPPORT   0/318
ELECTRONICS   0/359
ELEKTRONIK.GER   1534
ENET.LINGUISTIC   0/13
ENET.POLITICS   0/4
ENET.SOFT   0/11701
ENET.SYSOP   34433
ENET.TALKS   0/32
ENGLISH_TUTOR   0/2000
EVOLUTION   0/1335
FDECHO   0/217
FDN_ANNOUNCE   6944/7068
FIDONEWS   25233
FIDONEWS_OLD1   0/49742
FIDONEWS_OLD2   0/35949
FIDONEWS_OLD3   0/30874
FIDONEWS_OLD4   0/37224
FIDO_SYSOP   12977
FIDO_UTIL   0/180
FILEFIND   0/209
FILEGATE   0/212
Möte HAM, 16786 texter
 lista första sista föregående nästa
Text 3696, 880 rader
Skriven 2010-05-27 23:30:22 av Amsat List (1:323/120.0)
Ärende: [keps]  orb10147.amsa
=============================
[keps]  orb10147.amsa

Return-Path: <keps-bounces@amsat.org>
X-Rcpt: craig.healy@chowda.com
X-UIDL: 1275016772.7063

SB KEPS @ AMSAT  $ORB10147.O
Orbital Elements  10147.OSCAR

HR AMSAT ORBITAL ELEMENTS FOR OSCAR SATELLITES
FROM WA5QGD FORT WORTH,TX May 27, 2010
Send Subscribe/unsubscribe to KEPS at http://www.amsat.org/mailman/listinfo/kep
BID: ORB10147.O
TO ALL RADIO AMATEURS BT

Satellite: AO-07
Catalog number: 07530
Epoch time:      10146.57516214
Element set:    0787
Inclination:      101.4006 deg
RA of node:       163.2801 deg
Eccentricity:    0.0011922
Arg of perigee:   318.5385 deg
Mean anomaly:     041.4782 deg
Mean motion:   12.53578421 rev/day
Decay rate:       -2.7e-07 rev/day^2
Epoch rev:           62574
Checksum:              277

Satellite: FO-29
Catalog number: 24278
Epoch time:      10146.95416303
Element set:    0320
Inclination:      098.5134 deg
RA of node:       339.0217 deg
Eccentricity:    0.0350606
Arg of perigee:   178.7897 deg
Mean anomaly:     181.4174 deg
Mean motion:   13.52950609 rev/day
Decay rate:       -2.3e-07 rev/day^2
Epoch rev:           68023
Checksum:              306

Satellite: SO-33
Catalog number: 25509
Epoch time:      10147.64132659
Element set:     720
Inclination:      031.4306 deg
RA of node:       264.7011 deg
Eccentricity:    0.0353540
Arg of perigee:   110.3283 deg
Mean anomaly:     253.5688 deg
Mean motion:   14.28305200 rev/day
Decay rate:     -.00000000 rev/day^2
Epoch rev:           60511
Checksum:              240

Satellite: RS-22
Catalog number: 27939
Epoch time:      10147.68008167
Element set:     217
Inclination:      097.8958 deg
RA of node:       014.0345 deg
Eccentricity:    0.0014602
Arg of perigee:   122.3487 deg
Mean anomaly:     237.9125 deg
Mean motion:   14.63419709 rev/day
Decay rate:        5.0e-07 rev/day^2
Epoch rev:           35595
Checksum:              312

Satellite: VO-52
Catalog number: 28650
Epoch time:      10147.60451190
Element set:     512
Inclination:      097.6939 deg
RA of node:       201.8397 deg
Eccentricity:    0.0026828
Arg of perigee:   346.8452 deg
Mean anomaly:     013.2054 deg
Mean motion:   14.81750495 rev/day
Decay rate:       3.44e-06 rev/day^2
Epoch rev:           27364
Checksum:              308

Satellite: SO-67
Catalog number: 35870
Epoch time:      10147.90094907
Element set:     764
Inclination:      097.3334 deg
RA of node:       197.5716 deg
Eccentricity:    0.0003682
Arg of perigee:   140.2977 deg
Mean anomaly:     220.2856 deg
Mean motion:   15.20893794 rev/day
Decay rate:       4.96e-06 rev/day^2
Epoch rev:            3837
Checksum:              341

Satellite: HO-68
Catalog number: 36122
Epoch time:      10147.64996210
Element set:     341
Inclination:      100.4692 deg
RA of node:       208.2853 deg
Eccentricity:    0.0007804
Arg of perigee:   024.8659 deg
Mean anomaly:     335.2832 deg
Mean motion:   13.16280845 rev/day
Decay rate:       -4.5e-07 rev/day^2
Epoch rev:            2151
Checksum:              283

/EX
SB KEPS @ AMSAT  $ORB10147.D
Orbital Elements  10147.MICROS

HR AMSAT ORBITAL ELEMENTS FOR THE MICROSATS
FROM WA5QGD FORT WORTH,TX May 27, 2010
Send Subscribe/unsubscribe to KEPS at http://www.amsat.org/mailman/listinfo/kep
BID: ORB10147.D
TO ALL RADIO AMATEURS BT

Satellite: UO-11
Catalog number: 14781
Epoch time:      10147.60186002
Element set:     250
Inclination:      098.0578 deg
RA of node:       199.2794 deg
Eccentricity:    0.0008220
Arg of perigee:   310.0902 deg
Mean anomaly:     049.9575 deg
Mean motion:   14.79804318 rev/day
Decay rate:       1.66e-06 rev/day^2
Epoch rev:           40876
Checksum:              303

Satellite: AO-16
Catalog number: 20439
Epoch time:      10146.80584693
Element set:     904
Inclination:      098.3307 deg
RA of node:       105.5554 deg
Eccentricity:    0.0010178
Arg of perigee:   226.3818 deg
Mean anomaly:     133.6524 deg
Mean motion:   14.31861982 rev/day
Decay rate:        1.8e-07 rev/day^2
Epoch rev:            6232
Checksum:              295

Satellite: LO-19
Catalog number: 20442
Epoch time:      10146.73713610
Element set:    0816
Inclination:      098.2902 deg
RA of node:       111.3778 deg
Eccentricity:    0.0011156
Arg of perigee:   222.0914 deg
Mean anomaly:     137.9413 deg
Mean motion:   14.32093413 rev/day
Decay rate:        5.0e-08 rev/day^2
Epoch rev:           06248
Checksum:              264

Satellite: AO-27
Catalog number: 22825
Epoch time:      10147.78184873
Element set:     539
Inclination:      098.4844 deg
RA of node:       096.2610 deg
Eccentricity:    0.0007997
Arg of perigee:   335.9581 deg
Mean anomaly:     024.1230 deg
Mean motion:   14.29298155 rev/day
Decay rate:        3.8e-07 rev/day^2
Epoch rev:           86913
Checksum:              338

Satellite: IO-26
Catalog number: 22826
Epoch time:      10147.64098370
Element set:     276
Inclination:      098.4781 deg
RA of node:       096.7327 deg
Eccentricity:    0.0008562
Arg of perigee:   331.1546 deg
Mean anomaly:     028.9163 deg
Mean motion:   14.29553857 rev/day
Decay rate:     -.00000000 rev/day^2
Epoch rev:           86922
Checksum:              317

Satellite: GO-32
Catalog number: 25397
Epoch time:      10146.72807679
Element set:     194
Inclination:      098.3121 deg
RA of node:       155.3606 deg
Eccentricity:    0.0001002
Arg of perigee:   022.2983 deg
Mean anomaly:     337.8244 deg
Mean motion:   14.23177723 rev/day
Decay rate:      -1.38e-06 rev/day^2
Epoch rev:           61699
Checksum:              304

